Location: Glendale
(37.4556°N, 88.6714°W)
Time: 17:20:07
(UTC+00:00)

Aureole 1 Rocket - Pass Details

Date: 08 December 2019
Orbit: 378 x 1382 km, 73.9° (Epoch: 25 January)

Event Time Altitude Azimuth Distance (km) Brightness Sun altitude
Rises 00:05:10 0° 198° (SSW) 2,324 6.5 -17.1°
Reaches altitude 10° 00:07:14 10° 198° (SSW) 1,417 5.4 -17.5°
Maximum altitude 00:10:13 87° 288° (WNW) 384 1.9 -18.1°
Enters shadow 00:10:45 56° 14° (NNE) 455 2.2 -18.2°
